Wind_Speed
80 84 93 95 92 89 85 80 77 72 69 69 63 55 64 56 46 52 41 40 41 39 39 35 35 29 27 26 21 26 28 21 29 25 23 25 23 21 21 22 20 18 17 17 15
63 75 87 91 92 91 88 83 80 76 73 72 75 61 58 52 54 52 43 45 46 42 40 37 37 33 35 28 25 22 17 26 23 32 29 29 27 25 24 24 23 21 21 20 18
63 59 81 87 87 90 89 85 82 79 77 75 73 68 66 61 61 55 55 50 49 44 40 40 38 36 37 33 31 26 23 21 27 26 30 31 29 27 26 26 27 25 23 23 21
70 72 70 74 86 85 86 84 84 81 78 77 76 73 70 67 64 57 60 52 45 51 44 41 40 37 39 36 34 31 27 21 25 18 31 33 33 29 30 33 29 26 24 22 21
71 66 66 67 76 82 80 80 81 82 77 76 77 74 72 69 64 59 63 56 54 56 48 42 41 42 42 37 29 31 31 27 25 29 26 32 34 34 33 36 32 29 26 26 24
43 63 62 60 63 68 72 75 77 77 72 72 73 73 72 69 63 62 62 65 58 61 49 42 44 42 44 44 39 35 36 30 27 29 26 24 37 38 36 36 34 31 29 29 27
56 62 64 60 58 62 61 69 73 68 65 68 68 67 68 64 62 60 61 61 53 53 43 44 47 48 43 42 43 41 39 30 31 29 30 22 38 36 38 38 35 33 32 31 30
65 51 63 58 54 53 55 56 71 65 60 60 61 64 64 62 62 60 59 58 57 54 50 51 51 50 48 46 44 43 44 41 36 32 36 33 27 36 39 39 38 36 35 33 31
86 53 61 58 57 53 54 56 56 61 61 60 59 57 57 60 59 57 57 56 55 55 53 51 49 52 50 48 44 45 46 45 38 35 36 31 20 39 41 39 40 38 36 35 34
72 59 60 57 53 54 53 55 64 60 63 62 61 57 64 56 56 53 50 53 52 51 50 49 49 50 51 51 49 44 42 40 36 37 39 34 31 27 38 40 42 41 40 38 35
59 51 54 55 49 52 55 51 65 66 67 66 67 65 58 58 55 54 51 50 51 50 46 46 46 47 45 44 45 44 43 44 43 42 43 41 37 33 41 48 47 46 44 40 36
60 42 53 55 49 53 64 58 56 60 64 58 58 59 61 54 51 49 50 50 50 49 47 47 50 47 43 40 40 45 43 43 42 41 48 46 43 44 44 42 53 51 50 46 43
63 49 52 55 52 54 58 67 50 50 50 54 58 60 58 57 55 49 49 51 48 45 42 40 42 45 45 45 44 44 42 46 45 43 44 49 50 49 43 47 54 56 54 53 50
61 61 54 56 57 52 60 63 60 54 52 56 61 66 63 61 61 55 56 57 55 51 49 48 47 43 42 39 42 44 45 46 49 53 47 49 55 52 49 43 44 59 58 56 53
65 62 57 60 59 52 53 64 65 63 62 50 65 65 66 64 58 57 59 59 57 55 51 47 47 44 39 36 42 43 45 48 51 55 53 50 52 52 51 42 49 56 63 60 57
63 69 69 61 59 55 58 63 64 67 65 59 57 63 61 63 61 60 60 59 60 60 59 56 51 52 47 48 49 47 48 47 50 53 58 51 54 56 50 49 50 48 67 64 59
66 67 67 56 56 58 59 61 63 64 68 61 56 57 61 61 65 64 62 63 62 57 55 56 57 53 53 51 51 48 49 50 54 56 53 51 60 56 49 47 53 54 61 68 63
65 66 62 57 59 58 60 63 67 63 60 55 56 56 56 64 62 61 62 63 59 58 54 55 56 54 53 53 50 57 61 58 55 53 47 51 55 54 57 49 41 46 59 67 64
71 71 66 68 68 62 62 67 60 59 58 61 60 55 58 57 56 61 62 57 56 54 54 57 57 57 59 60 61 60 61 55 62 60 54 55 47 47 58 52 50 44 56 64 60
71 75 78 62 66 62 57 59 63 63 57 55 56 58 55 54 54 55 56 51 52 55 56 55 56 53 54 58 57 60 55 58 60 61 58 56 52 46 56 53 49 46 50 59 59
71 75 75 72 61 55 63 60 57 54 52 47 48 50 46 44 47 47 45 47 50 53 57 58 58 55 54 57 57 56 57 62 63 60 58 55 52 46 56 54 53 48 49 53 54
72 71 79 67 50 61 66 64 59 55 54 50 47 44 43 39 40 39 39 39 44 52 54 53 58 57 55 52 51 50 48 48 61 64 64 63 53 51 57 56 55 47 47 51 53
60 70 71 61 50 55 65 63 60 60 56 50 42 42 42 44 43 39 39 37 37 45 50 49 52 55 56 55 54 55 52 55 54 61 62 61 50 51 50 47 43 38 48 46 43
63 64 65 56 53 49 64 64 56 57 54 46 46 49 49 45 43 40 42 40 36 40 46 48 48 51 52 50 50 51 54 54 56 64 61 62 50 59 48 43 37 39 36 36 38
70 70 67 54 65 62 54 59 59 60 55 54 52 49 47 47 47 38 40 41 40 42 46 49 49 48 47 46 48 46 47 51 59 60 57 51 57 57 47 35 35 39 33 36 34
67 70 70 70 66 64 60 60 57 63 60 54 54 57 56 50 51 40 37 39 41 45 48 50 48 46 49 47 47 46 43 43 50 49 53 53 53 47 44 36 36 39 33 33 34
67 70 72 74 64 67 65 61 59 60 63 54 55 54 52 46 42 38 37 33 37 43 45 49 49 47 48 46 48 49 36 37 41 44 37 39 31 42 44 38 36 33 38 41 38
Wind_Direction
221 223 215 215 217 218 218 220 219 218 215 206 201 204 210 213 222 217 218 222 217 218 227 221 222 226 222 228 235 242 243 242 235 232 226 220 216 211 211 217 205 189 171 160 160
211 225 223 215 215 217 218 219 220 219 216 216 223 214 213 219 215 222 219 227 224 227 222 227 225 228 220 230 233 234 248 250 244 236 225 222 216 211 205 213 207 193 182 170 171
209 222 227 223 217 217 219 219 219 221 218 217 221 222 219 218 217 219 218 227 224 224 219 221 221 228 227 229 230 233 234 256 244 249 226 223 220 211 207 210 209 198 193 177 177
212 222 232 231 224 220 220 220 219 219 221 219 221 221 222 221 220 221 220 225 226 229 227 227 230 226 228 230 228 235 237 246 259 242 234 220 227 214 203 211 210 201 200 191 188
204 212 222 230 229 227 223 221 221 221 221 222 221 223 224 224 224 221 223 224 227 227 228 229 235 232 231 236 239 238 238 242 245 252 251 224 227 223 207 210 210 204 203 207 201
203 204 217 223 225 227 227 226 223 222 221 223 224 224 225 224 224 224 224 228 230 224 229 233 239 239 236 235 242 241 237 239 242 242 237 234 223 224 216 215 209 210 210 212 208
199 200 206 213 219 224 221 226 226 224 223 224 225 225 227 227 225 229 227 229 234 240 235 235 238 241 238 237 237 237 236 239 235 240 240 268 224 223 221 219 215 214 214 212 214
204 210 208 210 214 209 213 218 225 224 226 227 227 228 229 226 227 228 232 233 233 236 235 235 235 238 239 238 239 241 239 234 235 246 246 258 240 220 223 223 220 217 217 215 213
224 207 205 210 210 205 204 206 218 218 219 225 226 229 228 227 228 228 231 234 235 237 238 238 237 240 241 241 241 241 239 237 231 240 249 253 252 223 226 225 225 222 220 216 213
218 205 201 205 202 200 193 198 204 210 213 216 217 219 230 231 232 230 228 231 235 237 236 237 240 241 242 243 243 248 252 251 248 244 248 250 246 241 230 233 230 226 220 218 215
188 194 197 201 201 193 178 197 202 206 207 223 231 232 229 226 225 227 227 226 230 233 235 237 238 242 246 248 248 247 245 243 240 232 241 246 243 240 229 236 236 229 226 222 220
205 202 194 195 198 198 191 196 217 209 220 222 222 227 230 228 226 226 224 225 229 237 234 236 242 240 242 243 249 251 246 245 242 238 243 242 241 237 241 245 232 230 228 224 222
201 201 193 195 199 198 192 190 200 204 206 217 215 215 221 225 224 228 228 228 226 227 236 236 239 242 241 246 250 250 251 250 252 250 242 242 243 245 239 247 233 228 229 229 224
193 208 186 191 197 196 197 197 193 209 207 210 208 207 207 211 212 214 216 218 218 220 221 223 224 228 235 238 237 240 246 244 249 251 249 245 243 243 244 248 244 230 232 231 232
182 191 189 191 199 196 198 196 200 201 194 206 205 205 207 210 212 210 213 216 217 220 224 229 223 230 229 230 229 229 233 238 241 245 246 247 250 242 247 250 246 238 235 233 234
188 195 198 195 199 201 198 197 201 206 213 217 203 205 208 210 212 212 214 217 217 220 221 222 224 226 223 224 227 232 229 239 241 247 249 254 254 244 245 258 256 254 236 236 235
181 183 186 190 199 201 197 198 203 208 212 212 207 207 208 208 210 214 215 218 219 220 221 223 222 220 220 223 225 226 229 235 244 244 255 256 254 254 253 262 252 252 236 236 233
178 181 189 187 193 199 199 201 206 209 210 212 213 213 211 210 213 218 219 219 219 222 224 227 229 228 228 226 225 234 234 237 243 253 261 258 259 255 258 261 256 257 237 232 236
177 181 180 183 190 200 204 204 206 203 210 215 214 215 216 215 220 220 221 223 224 224 227 228 227 228 231 236 236 233 232 241 243 244 248 252 259 255 258 261 263 265 244 234 236
179 181 177 184 190 198 202 203 206 211 211 214 218 218 216 218 219 222 226 228 231 231 233 235 237 237 238 239 242 243 245 243 241 240 245 252 258 261 257 258 255 255 246 238 240
182 184 183 186 187 200 207 205 206 206 201 207 210 213 217 220 223 228 232 234 234 235 236 236 237 239 238 239 242 244 246 246 244 242 245 250 253 257 254 252 252 258 249 242 238
190 182 183 182 187 202 208 199 200 205 208 208 209 215 222 229 228 230 234 231 236 239 239 240 239 239 243 242 243 245 249 252 249 252 251 243 246 252 250 252 252 255 249 245 242
196 188 188 187 196 200 204 204 206 209 211 208 209 218 221 228 228 229 229 235 241 244 243 243 236 238 239 241 243 245 247 252 260 248 246 249 246 245 247 255 262 262 243 240 245
201 199 192 197 192 200 203 203 205 205 211 210 216 221 221 222 221 221 227 232 239 249 240 239 241 242 245 251 250 250 245 246 251 245 247 247 248 245 239 244 254 247 237 237 236
206 205 199 197 195 193 196 205 211 208 209 210 216 220 224 225 225 223 225 234 237 237 237 238 239 242 245 245 247 244 245 249 243 241 242 247 245 242 245 246 240 238 239 233 232
210 209 208 202 203 207 212 206 206 212 217 216 219 225 221 228 225 232 236 243 245 233 229 233 238 241 245 245 247 247 246 241 237 243 247 248 245 250 250 237 228 238 228 230 226
210 213 213 205 202 209 209 200 205 211 216 222 219 227 232 234 233 238 242 241 241 228 230 237 240 238 238 243 243 244 244 248 245 240 243 246 242 251 251 237 224 227 229 227 225
Height
5603 5614 5627 5640 5656 5670 5683 5695 5706 5716 5726 5735 5742 5748 5757 5764 5773 5780 5786 5793 5798 5803 5808 5813 5816 5820 5822 5824 5827 5830 5834 5837 5840 5846 5849 5851 5854 5858 5860 5864 5864 5865 5867 5868 5870
5592 5603 5615 5628 5643 5657 5671 5682 5695 5706 5717 5724 5726 5735 5745 5755 5764 5772 5781 5785 5790 5796 5803 5808 5812 5816 5819 5821 5824 5824 5829 5834 5836 5841 5844 5848 5850 5855 5858 5861 5864 5864 5865 5867 5868
5583 5593 5604 5617 5631 5645 5659 5671 5682 5695 5707 5716 5721 5728 5738 5748 5756 5767 5773 5778 5784 5789 5796 5802 5805 5812 5815 5817 5821 5823 5825 5828 5833 5837 5840 5844 5848 5851 5856 5860 5861 5863 5864 5865 5868
5573 5585 5594 5606 5621 5634 5648 5659 5671 5683 5696 5705 5712 5721 5730 5739 5750 5759 5764 5769 5776 5783 5788 5795 5799 5807 5811 5812 5817 5821 5823 5825 5829 5834 5837 5842 5845 5848 5851 5854 5859 5862 5864 5866 5867
5564 5575 5584 5596 5610 5625 5637 5648 5660 5673 5685 5693 5703 5712 5722 5731 5743 5750 5755 5762 5770 5777 5783 5789 5793 5800 5805 5807 5810 5816 5820 5823 5825 5830 5834 5837 5844 5845 5848 5850 5855 5860 5862 5864 5864
5546 5562 5574 5587 5598 5613 5627 5639 5651 5664 5674 5682 5693 5703 5714 5724 5732 5742 5749 5756 5764 5769 5774 5781 5787 5794 5797 5801 5805 5812 5817 5819 5821 5825 5828 5832 5838 5843 5845 5849 5852 5856 5858 5861 5862
5540 5554 5566 5577 5589 5603 5616 5628 5644 5655 5664 5674 5683 5693 5704 5716 5724 5732 5742 5751 5756 5759 5765 5773 5780 5785 5791 5795 5798 5805 5809 5812 5815 5818 5822 5826 5831 5840 5843 5845 5849 5853 5855 5858 5860
5531 5545 5558 5570 5582 5592 5607 5620 5634 5645 5654 5665 5673 5684 5695 5705 5712 5722 5731 5740 5746 5751 5756 5764 5771 5777 5782 5787 5793 5797 5804 5805 5809 5811 5815 5822 5828 5834 5837 5842 5844 5847 5851 5854 5858
5524 5541 5550 5563 5574 5584 5597 5612 5625 5634 5642 5654 5664 5675 5684 5695 5705 5715 5724 5731 5738 5744 5751 5758 5764 5771 5776 5782 5787 5790 5794 5800 5806 5807 5809 5816 5824 5827 5831 5837 5840 5843 5847 5850 5852
5521 5536 5545 5557 5567 5577 5590 5602 5615 5618 5627 5639 5650 5662 5677 5689 5697 5706 5714 5722 5729 5737 5744 5751 5757 5763 5769 5773 5780 5787 5792 5798 5805 5808 5807 5810 5817 5820 5825 5830 5836 5839 5841 5844 5849
5515 5525 5536 5549 5561 5571 5583 5586 5593 5602 5614 5629 5649 5659 5672 5677 5686 5696 5704 5712 5718 5725 5734 5741 5749 5757 5763 5769 5773 5779 5783 5788 5794 5798 5798 5803 5805 5813 5817 5819 5827 5833 5837 5840 5846
5508 5521 5532 5542 5554 5564 5574 5581 5588 5599 5612 5627 5638 5651 5661 5670 5680 5688 5697 5702 5708 5717 5724 5732 5743 5749 5755 5761 5766 5770 5774 5779 5783 5788 5789 5793 5796 5801 5807 5813 5818 5825 5828 5833 5836
5503 5515 5525 5535 5546 5555 5570 5578 5585 5598 5606 5617 5625 5638 5649 5660 5670 5681 5688 5695 5701 5708 5716 5724 5733 5738 5746 5752 5759 5763 5767 5771 5774 5776 5782 5783 5785 5791 5800 5805 5810 5815 5821 5824 5828
5495 5507 5518 5526 5539 5549 5560 5574 5585 5593 5602 5609 5615 5624 5636 5648 5656 5669 5677 5686 5692 5698 5706 5713 5721 5728 5735 5743 5749 5753 5757 5759 5762 5763 5771 5772 5775 5783 5789 5797 5804 5809 5812 5818 5822
5486 5499 5510 5520 5532 5543 5557 5568 5577 5589 5591 5598 5606 5617 5628 5639 5653 5659 5667 5675 5684 5692 5699 5709 5714 5720 5728 5738 5739 5746 5747 5747 5750 5751 5755 5765 5768 5779 5781 5789 5800 5802 5803 5809 5814
5481 5492 5503 5513 5524 5539 5550 5561 5567 5575 5575 5587 5599 5608 5622 5634 5644 5650 5660 5668 5676 5682 5689 5697 5705 5711 5722 5724 5730 5732 5737 5740 5741 5740 5741 5765 5761 5764 5777 5784 5785 5790 5796 5801 5806
5475 5485 5497 5507 5520 5530 5541 5549 5557 5563 5575 5588 5597 5607 5617 5624 5633 5641 5649 5654 5664 5674 5682 5687 5694 5703 5708 5714 5719 5723 5727 5727 5727 5726 5744 5750 5743 5761 5768 5773 5776 5777 5784 5789 5795
5468 5481 5491 5503 5514 5524 5532 5543 5548 5563 5572 5582 5593 5602 5608 5616 5624 5633 5638 5646 5659 5667 5673 5680 5687 5695 5699 5704 5709 5710 5711 5716 5719 5721 5738 5734 5735 5758 5757 5762 5767 5766 5772 5777 5784
5461 5475 5487 5499 5509 5517 5526 5533 5543 5555 5567 5575 5586 5594 5601 5610 5619 5624 5633 5646 5652 5660 5667 5669 5676 5683 5690 5695 5697 5698 5696 5712 5707 5711 5718 5722 5736 5746 5747 5753 5760 5761 5763 5770 5773
5452 5469 5483 5492 5502 5511 5519 5530 5538 5549 5561 5570 5580 5589 5596 5603 5610 5618 5627 5640 5646 5653 5657 5663 5667 5676 5679 5681 5683 5688 5699 5696 5695 5700 5706 5713 5724 5737 5742 5742 5750 5752 5754 5759 5764
5445 5460 5473 5483 5492 5499 5506 5521 5532 5543 5553 5563 5573 5584 5592 5599 5606 5614 5623 5630 5636 5642 5646 5652 5656 5663 5667 5671 5678 5682 5683 5685 5690 5690 5697 5705 5712 5728 5733 5734 5736 5741 5742 5746 5752
5438 5450 5465 5472 5478 5488 5501 5514 5525 5536 5547 5559 5568 5577 5586 5593 5598 5607 5616 5624 5628 5633 5638 5642 5646 5650 5658 5662 5667 5671 5675 5677 5677 5688 5687 5687 5700 5717 5722 5721 5723 5730 5731 5734 5739
5430 5441 5453 5461 5468 5479 5496 5507 5516 5530 5543 5551 5559 5569 5578 5586 5592 5600 5608 5614 5619 5625 5632 5636 5635 5640 5645 5651 5659 5662 5667 5670 5673 5675 5674 5683 5698 5706 5707 5712 5713 5719 5719 5722 5726
5423 5428 5439 5450 5462 5474 5486 5499 5511 5523 5534 5544 5554 5562 5570 5577 5586 5592 5600 5605 5610 5615 5622 5626 5627 5632 5639 5651 5650 5651 5657 5660 5662 5661 5671 5671 5693 5690 5697 5702 5704 5705 5709 5712 5717
5410 5417 5426 5443 5453 5465 5477 5492 5503 5513 5524 5533 5544 5554 5563 5570 5578 5585 5590 5595 5599 5605 5609 5614 5617 5625 5630 5634 5635 5640 5646 5648 5647 5654 5654 5674 5672 5682 5686 5689 5692 5694 5697 5703 5707
5401 5410 5422 5436 5447 5456 5467 5479 5496 5509 5516 5528 5538 5547 5552 5563 5572 5579 5583 5586 5592 5595 5599 5603 5608 5616 5620 5624 5627 5629 5632 5635 5639 5645 5650 5660 5665 5671 5674 5676 5681 5684 5690 5694 5697
5396 5407 5416 5425 5436 5445 5461 5479 5495 5503 5512 5522 5532 5539 5551 5561 5567 5571 5572 5576 5582 5588 5593 5598 5601 5606 5610 5615 5618 5618 5628 5630 5635 5639 5647 5646 5663 5659 5663 5667 5671 5675 5679 5682 5686